{"data":{"norad_id":36831,"epoch":"2026-05-25T03:45:24.686208Z","epoch_age_seconds":68375,"freshness":"FRESH","line1":"1 36831U 10037B   26145.15653572  .00000016  00000+0  00000+0 0  9999","line2":"2 36831   0.0064  71.9536 0006750 353.9936 236.0549  1.00270789 58073","mean_motion":1.00270789,"eccentricity":0.000675,"inclination_deg":0.0064,"raan_deg":71.9536,"arg_perigee_deg":353.9936,"mean_anomaly_deg":236.0549,"bstar":0,"rev_number":5807,"period_min":1436.1111689268,"perigee_km":35758.412795912,"apogee_km":35815.335561003,"semimajor_km":42165.011178458,"source":"CELESTRAK","updated_at":"2026-05-25T13:38:13.894958Z"}}